• Em Portugal
  • Lista de países
  • Para 7 dias
  • Temperatura da água
  • Mapas de satélite
  • Mapa do tempo
  • Widgets de tempo
  • user-avatar
    Iniciar Sessão

    Previsão horária em Bujumbura

    Hoje, 18 Agosto, Sexta-feira

    Tempo Temperatura Precipitação Vento Pressão Humidade
    00:00 +24°C° 0,6 mm 1 m/s 691 mmHg 82%
    01:00 +24°C° 0,6 mm 1 m/s 691 mmHg 82%
    02:00 +24°C° 0 mm 1 m/s 691 mmHg 83%
    03:00 +24°C° 0,6 mm 1 m/s 691 mmHg 84%
    04:00 +24°C° 0,6 mm 1 m/s 691 mmHg 84%
    05:00 +23°C° 0,6 mm 1 m/s 691 mmHg 85%
    06:00 +25°C° 0,5 mm 1 m/s 692 mmHg 80%
    07:00 +26°C° 0,5 mm 1 m/s 692 mmHg 76%
    08:00 +25°C° 0 mm 0 m/s 693 mmHg 70%
    09:00 +29°C° 0,3 mm 1 m/s 693 mmHg 66%
    10:00 +30°C° 0,3 mm 1 m/s 693 mmHg 62%
    11:00 +31°C° 0,3 mm 1 m/s 692 mmHg 57%
    12:00 +31°C° 0,8 mm 2 m/s 692 mmHg 57%
    13:00 +31°C° 0,8 mm 2 m/s 691 mmHg 58%
    14:00 +31°C° 0,8 mm 2 m/s 691 mmHg 58%
    15:00 +30°C° 1,2 mm 2 m/s 690 mmHg 63%
    16:00 +29°C° 1,2 mm 2 m/s 690 mmHg 68%
    17:00 +28°C° 1,2 mm 2 m/s 690 mmHg 73%
    18:00 +27°C° 1,3 mm 2 m/s 690 mmHg 78%
    19:00 +26°C° 1,3 mm 1 m/s 691 mmHg 82%
    20:00 +25°C° 1,3 mm 1 m/s 691 mmHg 86%
    21:00 +25°C° 0,3 mm 1 m/s 691 mmHg 86%
    22:00 +23°C° 0,3 mm 0 m/s 692 mmHg 87%
    23:00 +22°C° 0,3 mm 0 m/s 692 mmHg 87%

    Amanhã, 19 Agosto, Sábado

    Tempo Temperatura Precipitação Vento Pressão Humidade
    00:00 +22°C° 0,1 mm 0 m/s 692 mmHg 87%
    01:00 +24°C° 0,1 mm 1 m/s 691 mmHg 87%
    02:00 +24°C° 0,1 mm 1 m/s 691 mmHg 87%
    03:00 +24°C° 0,3 mm 1 m/s 691 mmHg 88%
    04:00 +24°C° 0,3 mm 1 m/s 691 mmHg 88%
    05:00 +23°C° 0,3 mm 1 m/s 691 mmHg 88%
    06:00 +24°C° 2,2 mm 1 m/s 692 mmHg 87%
    07:00 +24°C° 2,2 mm 1 m/s 692 mmHg 85%
    08:00 +25°C° 2,2 mm 1 m/s 692 mmHg 84%
    09:00 +25°C° 2,6 mm 1 m/s 692 mmHg 84%
    10:00 +25°C° 2,6 mm 1 m/s 692 mmHg 83%
    11:00 +25°C° 2,6 mm 1 m/s 692 mmHg 83%
    12:00 +26°C° 0,6 mm 1 m/s 692 mmHg 78%
    13:00 +28°C° 0,6 mm 2 m/s 691 mmHg 73%
    14:00 +29°C° 0,6 mm 2 m/s 691 mmHg 69%
    15:00 +28°C° 0,7 mm 2 m/s 690 mmHg 70%
    16:00 +28°C° 0,7 mm 1 m/s 690 mmHg 71%
    17:00 +28°C° 0,7 mm 1 m/s 690 mmHg 72%
    18:00 +27°C° 0,9 mm 1 m/s 691 mmHg 75%
    19:00 +26°C° 0,9 mm 1 m/s 691 mmHg 78%
    20:00 +25°C° 0,9 mm 1 m/s 692 mmHg 82%
    21:00 +25°C° 0,5 mm 1 m/s 692 mmHg 82%
    22:00 +24°C° 0,5 mm 1 m/s 692 mmHg 83%
    23:00 +24°C° 0,5 mm 1 m/s 692 mmHg 84%

    Depois de amanhã, 20 Agosto, Domingo

    Tempo Temperatura Precipitação Vento Pressão Humidade
    00:00 +24°C° 0,1 mm 1 m/s 692 mmHg 84%
    01:00 +24°C° 0,1 mm 1 m/s 692 mmHg 84%
    02:00 +23°C° 0,1 mm 1 m/s 691 mmHg 85%
    03:00 +23°C° 0,5 mm 1 m/s 691 mmHg 85%
    04:00 +23°C° 0,5 mm 1 m/s 691 mmHg 85%
    05:00 +23°C° 0,5 mm 1 m/s 691 mmHg 85%
    06:00 +24°C° 0,1 mm 1 m/s 692 mmHg 82%
    07:00 +25°C° 0,1 mm 2 m/s 693 mmHg 79%
    08:00 +26°C° 0,1 mm 2 m/s 693 mmHg 76%
    09:00 +27°C° 0 mm 2 m/s 693 mmHg 70%
    10:00 +28°C° 0 mm 2 m/s 693 mmHg 65%
    11:00 +30°C° 0 mm 2 m/s 694 mmHg 60%
    12:00 +30°C° 0 mm 2 m/s 693 mmHg 57%
    13:00 +31°C° 0 mm 2 m/s 692 mmHg 54%
    14:00 +32°C° 0 mm 2 m/s 691 mmHg 51%
    15:00 +31°C° 0 mm 2 m/s 690 mmHg 51%
    16:00 +31°C° 0 mm 2 m/s 690 mmHg 52%
    17:00 +30°C° 0 mm 1 m/s 690 mmHg 53%
    18:00 +28°C° 0 mm 1 m/s 690 mmHg 58%
    19:00 +27°C° 0 mm 1 m/s 691 mmHg 63%
    20:00 +23°C° 0 mm 0 m/s 691 mmHg 69%
    21:00 +25°C° 0 mm 1 m/s 691 mmHg 69%
    22:00 +24°C° 0 mm 1 m/s 692 mmHg 70%
    23:00 +24°C° 0 mm 1 m/s 692 mmHg 70%

    21 Agosto, Segunda-feira

    Tempo Temperatura Precipitação Vento Pressão Humidade
    00:00 +24°C° 0 mm 1 m/s 691 mmHg 71%
    01:00 +23°C° 0 mm 1 m/s 691 mmHg 72%
    02:00 +23°C° 0 mm 1 m/s 690 mmHg 73%
    03:00 +23°C° 0 mm 1 m/s 691 mmHg 74%
    04:00 +23°C° 0 mm 1 m/s 691 mmHg 76%
    05:00 +23°C° 0 mm 1 m/s 691 mmHg 77%
    06:00 +24°C° 0 mm 1 m/s 692 mmHg 73%
    07:00 +25°C° 0 mm 1 m/s 692 mmHg 70%
    08:00 +26°C° 0 mm 1 m/s 693 mmHg 66%
    09:00 +27°C° 0 mm 2 m/s 693 mmHg 62%
    10:00 +29°C° 0 mm 2 m/s 693 mmHg 57%
    11:00 +30°C° 0 mm 2 m/s 693 mmHg 53%
    12:00 +31°C° 0 mm 2 m/s 692 mmHg 51%
    13:00 +31°C° 0 mm 2 m/s 691 mmHg 49%
    14:00 +32°C° 0 mm 2 m/s 690 mmHg 47%
    15:00 +31°C° 0 mm 2 m/s 690 mmHg 49%
    16:00 +31°C° 0 mm 1 m/s 689 mmHg 51%
    17:00 +30°C° 0 mm 1 m/s 689 mmHg 53%
    18:00 +28°C° 0 mm 1 m/s 690 mmHg 58%
    19:00 +27°C° 0 mm 1 m/s 690 mmHg 63%
    20:00 +23°C° 0 mm 0 m/s 691 mmHg 69%
    21:00 +23°C° 0 mm 0 m/s 691 mmHg 70%
    22:00 +25°C° 0 mm 1 m/s 691 mmHg 71%
    23:00 +24°C° 0 mm 1 m/s 692 mmHg 73%

    22 Agosto, Terça-feira

    Tempo Temperatura Precipitação Vento Pressão Humidade
    00:00 +24°C° 0 mm 1 m/s 691 mmHg 73%
    01:00 +24°C° 0 mm 1 m/s 690 mmHg 73%
    02:00 +24°C° 0 mm 1 m/s 690 mmHg 73%
    03:00 +24°C° 0 mm 1 m/s 690 mmHg 73%
    04:00 +24°C° 0 mm 1 m/s 690 mmHg 73%
    05:00 +24°C° 0 mm 1 m/s 691 mmHg 73%
    06:00 +25°C° 0 mm 1 m/s 691 mmHg 69%
    07:00 +26°C° 0 mm 1 m/s 692 mmHg 65%
    08:00 +27°C° 0 mm 1 m/s 693 mmHg 61%
    09:00 +28°C° 0 mm 1 m/s 693 mmHg 56%
    10:00 +30°C° 0 mm 1 m/s 692 mmHg 51%
    11:00 +31°C° 0 mm 2 m/s 692 mmHg 46%
    12:00 +31°C° 0 mm 2 m/s 691 mmHg 46%
    13:00 +31°C° 0 mm 2 m/s 690 mmHg 47%
    14:00 +32°C° 0 mm 2 m/s 689 mmHg 47%
    15:00 +31°C° 0 mm 2 m/s 689 mmHg 49%
    16:00 +30°C° 0 mm 2 m/s 689 mmHg 51%
    17:00 +30°C° 0 mm 1 m/s 689 mmHg 53%
    18:00 +29°C° 0 mm 1 m/s 689 mmHg 58%
    19:00 +27°C° 0 mm 1 m/s 689 mmHg 63%
    20:00 +24°C° 0 mm 0 m/s 690 mmHg 69%
    21:00 +23°C° 0 mm 0 m/s 690 mmHg 70%
    22:00 +25°C° 0 mm 1 m/s 690 mmHg 72%
    23:00 +24°C° 0 mm 1 m/s 690 mmHg 73%

    23 Agosto, Quarta-feira

    Tempo Temperatura Precipitação Vento Pressão Humidade
    00:00 +24°C° 0 mm 1 m/s 690 mmHg 73%
    01:00 +24°C° 0 mm 1 m/s 690 mmHg 74%
    02:00 +24°C° 0 mm 1 m/s 690 mmHg 74%
    03:00 +24°C° 0 mm 1 m/s 690 mmHg 74%
    04:00 +23°C° 0 mm 1 m/s 690 mmHg 73%
    05:00 +23°C° 0 mm 1 m/s 690 mmHg 73%
    06:00 +24°C° 0 mm 1 m/s 691 mmHg 69%
    07:00 +26°C° 0 mm 1 m/s 691 mmHg 64%
    08:00 +27°C° 0 mm 1 m/s 692 mmHg 59%
    09:00 +29°C° 0 mm 1 m/s 691 mmHg 53%
    10:00 +30°C° 0 mm 1 m/s 691 mmHg 47%
    11:00 +32°C° 0 mm 2 m/s 691 mmHg 42%
    12:00 +32°C° 0 mm 2 m/s 690 mmHg 40%
    13:00 +34°C° 0 mm 2 m/s 689 mmHg 39%
    14:00 +34°C° 0 mm 2 m/s 688 mmHg 38%
    15:00 +32°C° 0 mm 2 m/s 688 mmHg 41%
    16:00 +32°C° 0 mm 2 m/s 688 mmHg 43%
    17:00 +31°C° 0 mm 2 m/s 688 mmHg 45%
    18:00 +29°C° 0 mm 1 m/s 688 mmHg 49%
    19:00 +28°C° 0 mm 1 m/s 689 mmHg 53%
    20:00 +27°C° 0 mm 1 m/s 689 mmHg 56%
    21:00 +26°C° 0 mm 1 m/s 689 mmHg 58%
    22:00 +26°C° 0 mm 1 m/s 690 mmHg 59%
    23:00 +25°C° 0 mm 1 m/s 690 mmHg 61%
    Mostrar mais